[[{"header":{"parameterUnit":"m.s-1","parameterCategory":1,"la1":30.2991,"la2":30.254,"lo1":-89.0895,"lo2":-89.0444,"dy":0.0017,"dx":0.0017,"nx":28,"ny":28,"refTime":"2024-10-11T03:00:00:Z","depth":0,"parameterNumber":2,"parameterNumberName":"U-component_of_WINDS"},"data":[0,0,0,0,0,0,0,0,0,0,0,0,0,0,0,0,0,0,0,0,0,0,0,0,0,0,0,0,0,0,0,0,0,0,0,0,0,0,0,0,0,0,0,0,0,0,0,0,0,0,0,0,0,0,0,0,0,0,-1.3024,-1.3024,0,-1.3016,-1.3016,-1.3016,-1.2978,-1.2977,-1.2976,-1.2975,-1.2967,-1.2968,-1.2968,0,0,0,0,0,0,0,0,0,0,0,0,0,-1.3007,-1.3008,-1.3024,-1.3024,-1.3023,-1.3016,-1.3016,-1.3016,-1.2978,-1.2977,-1.2976,-1.2975,-1.2967,-1.2968,-1.2968,0,0,0,0,0,0,0,0,0,0,0,0,0,-1.3008,-1.3008,-1.3024,-1.3004,-1.3002,-1.3016,-1.3016,-1.3016,-1.2978,-1.2977,-1.2975,-1.2974,-1.2967,-1.2968,-1.2969,-1.3001,0,0,-1.2971,-1.2972,0,0,0,0,0,0,0,0,-1.3008,-1.3009,-1.3007,-1.3005,-1.3003,-1.2996,-1.3007,-1.3011,-1.2978,-1.2987,-1.2975,-1.2973,-1.2978,-1.2978,-1.2979,-1.3001,-1.3001,-1.2971,-1.2972,-1.2972,-1.2973,0,0,0,0,0,0,0,-1.3008,-1.3009,-1.302,-1.3007,-1.3004,-1.2996,-1.2994,-1.3008,-1.299,-1.2986,-1.2983,-1.2983,-1.2977,-1.2979,-1.2979,-1.3,-1.2971,-1.2972,-1.2973,-1.2973,-1.3051,-1.3052,0,0,0,0,0,0,-1.3011,-1.3009,-1.3021,-1.302,-1.3002,-1.2997,-1.2995,-1.3,-1.299,-1.2987,-1.2984,-1.2981,-1.2978,-1.2978,-1.2978,-1.3017,-1.2972,-1.2973,-1.2974,-1.3049,-1.3051,-1.3053,0,0,0,0,0,0,-1.3011,-1.3012,-1.3021,-1.3014,-1.3015,-1.2999,-1.3004,-1.3,-1.3002,-1.2988,-1.2985,-1.2989,-1.2977,-1.2977,-1.2996,-1.3017,-1.2974,-1.2975,-1.3047,-1.305,-1.3052,-1.3095,0,0,0,0,0,0,-1.3011,-1.3013,-1.3024,-1.3015,-1.3015,-1.3039,-1.3005,-1.3001,-1.3004,-1.3,-1.2992,-1.299,-1.2976,-1.2995,-1.2997,-1.3017,-1.2975,-1.3046,-1.3048,-1.3051,-1.3092,-1.3098,-1.3104,0,0,0,0,0,-1.301,-1.3036,-1.3025,-1.3027,-1.3029,-1.304,-1.304,-1.3023,-1.3006,-1.3018,-1.3009,-1.299,-1.3014,-1.2997,-1.2999,-1.302,-1.3044,-1.3048,-1.3051,-1.3089,-1.3097,-1.3104,0,0,0,0,0,0,-1.3048,-1.3035,-1.3022,-1.3046,-1.3045,-1.3033,-1.3048,-1.3032,-1.3036,-1.3032,-1.3011,-1.301,-1.3032,-1.3028,-1.301,-1.3052,-1.3026,-1.303,-1.3054,-1.3062,-1.3068,-1.3069,-1.2976,0,0,0,0,0,-1.306,-1.3069,-1.3057,-1.3079,-1.3079,-1.3064,-1.3068,-1.3055,-1.3053,-1.3052,-1.3045,-1.3043,-1.3051,-1.3056,-1.3062,-1.3091,-1.309,-1.3106,-1.3113,-1.3118,-1.3122,-1.3138,-1.3146,-1.3064,-1.3064,-1.3064,0,0,-1.3083,-1.3076,-1.3084,-1.3087,-1.3084,-1.3095,-1.3063,-1.3076,-1.3084,-1.3054,-1.3072,-1.3067,-1.3064,-1.3089,-1.3099,-1.3086,-1.3144,-1.3122,-1.3126,-1.3127,-1.3143,-1.3151,-1.3158,-1.3066,-1.3066,-1.3065,0,0,-1.3131,-1.3127,-1.3145,-1.3144,-1.3141,-1.3131,-1.3136,-1.3127,-1.3123,-1.3141,-1.3119,-1.3129,-1.3141,-1.3141,-1.3142,-1.3193,-1.3176,-1.3195,-1.3228,-1.3245,-1.3251,-1.3257,-1.3276,-1.3283,-1.3199,-1.3199,-1.3199,0,-1.316,-1.3175,-1.3157,-1.3172,-1.3174,-1.3148,-1.3168,-1.3167,-1.3166,-1.3169,-1.3154,-1.3171,-1.3167,-1.3192,-1.3205,-1.3206,-1.3212,-1.3196,-1.3252,-1.3257,-1.3263,-1.3281,-1.3288,-1.3202,-1.3202,-1.3201,-1.3201,0,-1.3212,-1.3223,-1.3239,-1.3239,-1.3244,-1.3261,-1.3246,-1.3253,-1.324,-1.3233,-1.3252,-1.3247,-1.3252,-1.3257,-1.3245,-1.3281,-1.3273,-1.3256,-1.3229,-1.3273,-1.329,-1.3297,-1.3205,-1.3204,-1.3204,-1.3203,0,0,-1.3282,-1.3274,-1.328,-1.3281,-1.3277,-1.3285,-1.3302,-1.3307,-1.3314,-1.3315,-1.3329,-1.3342,-1.3326,-1.3327,-1.3315,-1.333,-1.3372,-1.331,-1.331,-1.3323,-1.3414,-1.3428,-1.3436,-1.3361,-1.3362,-1.3363,-1.3414,0,-1.3329,-1.3357,-1.3342,-1.3372,-1.3383,-1.3359,-1.3374,-1.3374,-1.3367,-1.3376,-1.3369,-1.3379,-1.3356,-1.3357,-1.3371,-1.3364,-1.339,-1.336,-1.3374,-1.3375,-1.3376,-1.3444,-1.3459,-1.3507,-1.3421,-1.3422,-1.3423,0,-1.3387,-1.3391,-1.3422,-1.3418,-1.3422,-1.3435,-1.344,-1.3449,-1.3448,-1.3443,-1.3446,-1.3431,-1.3448,-1.3421,-1.3445,-1.3425,-1.3431,-1.3428,-1.343,-1.3431,-1.3402,-1.3448,-1.3522,-1.353,-1.3432,-1.3432,-1.3431,0,-1.3437,-1.345,-1.3471,-1.3472,-1.3467,-1.3477,-1.3476,-1.3474,-1.3479,-1.3483,-1.3487,-1.3493,-1.3497,-1.3503,-1.349,-1.3472,-1.3517,-1.3489,-1.3513,-1.3514,-1.3524,-1.3523,-1.3601,-1.3526,-1.3526,-1.3526,-1.3526,0,-1.349,-1.3511,-1.3493,-1.3506,-1.3529,-1.3513,-1.3536,-1.3531,-1.3531,-1.3543,-1.3523,-1.3535,-1.3517,-1.3528,-1.3519,-1.3541,-1.3542,-1.3539,-1.3536,-1.3541,-1.3542,-1.3545,-1.3541,-1.3528,-1.3528,-1.3527,-1.3527,0,-1.3549,-1.3538,-1.356,-1.3554,-1.3553,-1.357,-1.3565,-1.3578,-1.3571,-1.3587,-1.359,-1.3579,-1.3591,-1.3579,-1.359,-1.3583,-1.3614,-1.3605,-1.3614,-1.3612,-1.3637,-1.3636,-1.372,-1.3731,-1.3649,-1.3649,-1.365,0,-1.3585,-1.36,-1.3596,-1.3603,-1.3603,-1.3615,-1.362,-1.3605,-1.3612,-1.3614,-1.3626,-1.3637,-1.3644,-1.3664,-1.3658,-1.3667,-1.3659,-1.3688,-1.366,-1.3665,-1.3661,-1.3661,-1.3663,-1.3694,-1.3695,-1.3696,-1.3696,0,-1.3649,-1.3643,-1.3652,-1.366,-1.3667,-1.3672,-1.3675,-1.3682,-1.3667,-1.3676,-1.3688,-1.3694,-1.3706,-1.3717,-1.3725,-1.3723,-1.3708,-1.3705,-1.3712,-1.3717,-1.3722,-1.3721,-1.363,-1.3703,-1.3703,-1.3702,-1.3702,-1.3701,-1.3698,-1.3711,-1.3711,-1.3722,-1.3723,-1.3728,-1.3739,-1.3735,-1.3745,-1.3753,-1.3744,-1.376,-1.3761,-1.3769,-1.377,-1.3783,-1.377,-1.3779,-1.3782,-1.3784,-1.3789,-1.372,-1.3784,-1.3783,-1.3783,-1.3783,-1.3783,0,-1.3762,-1.3761,-1.3771,-1.3778,-1.3787,-1.3772,-1.3775,-1.3784,-1.3798,-1.38,-1.3809,-1.3824,-1.3835,-1.383,-1.384,-1.3852,-1.3845,-1.3855,-1.3854,-1.3855,-1.3798,-1.3792,-1.386,-1.386,-1.386,-1.386,-1.386,-1.386,-1.3796,-1.3818,-1.3813,-1.3836,-1.3836,-1.3851,-1.3855,-1.3859,-1.3861,-1.3879,-1.3889,-1.3886,-1.3886,-1.3896,-1.3906,-1.3904,-1.391,-1.3922,-1.3918,-1.3866,-1.3858,-1.3851,-1.3845,-1.3923,-1.3923,-1.3974,-1.3974,-1.3974]},{"header":{"parameterUnit":"m.s-1","parameterCategory":1,"la1":30.2991,"la2":30.254,"lo1":-89.0895,"lo2":-89.0444,"dy":0.0017,"dx":0.0017,"nx":28,"ny":28,"refTime":"2024-10-11T03:00:00:Z","depth":0,"parameterNumber":3,"parameterNumberName":"V-component_of_WINDS"},"data":[0,0,0,0,0,0,0,0,0,0,0,0,0,0,0,0,0,0,0,0,0,0,0,0,0,0,0,0,0,0,0,0,0,0,0,0,0,0,0,0,0,0,0,0,0,0,0,0,0,0,0,0,0,0,0,0,0,0,-0.5354,-0.5354,0,-0.535,-0.535,-0.535,-0.5336,-0.5336,-0.5336,-0.5335,-0.5332,-0.5332,-0.5332,0,0,0,0,0,0,0,0,0,0,0,0,0,-0.5352,-0.5352,-0.5354,-0.5354,-0.5354,-0.535,-0.535,-0.535,-0.5336,-0.5336,-0.5336,-0.5335,-0.5332,-0.5332,-0.5332,0,0,0,0,0,0,0,0,0,0,0,0,0,-0.5351,-0.5352,-0.5354,-0.5347,-0.5346,-0.535,-0.535,-0.5349,-0.5336,-0.5336,-0.5336,-0.5335,-0.5332,-0.5332,-0.5332,-0.5343,0,0,-0.5333,-0.5333,0,0,0,0,0,0,0,0,-0.5351,-0.5351,-0.5348,-0.5347,-0.5346,-0.5343,-0.5348,-0.5347,-0.5337,-0.534,-0.5335,-0.5335,-0.5336,-0.5336,-0.5336,-0.5343,-0.5343,-0.5333,-0.5333,-0.5333,-0.5334,0,0,0,0,0,0,0,-0.5351,-0.5351,-0.5352,-0.5348,-0.5347,-0.5344,-0.5343,-0.5348,-0.5341,-0.534,-0.5339,-0.5338,-0.5336,-0.5336,-0.5336,-0.5343,-0.5333,-0.5333,-0.5334,-0.5334,-0.536,-0.536,0,0,0,0,0,0,-0.5352,-0.5351,-0.5352,-0.5352,-0.5347,-0.5345,-0.5344,-0.5345,-0.534,-0.5339,-0.5339,-0.5338,-0.5336,-0.5336,-0.5336,-0.535,-0.5333,-0.5334,-0.5334,-0.5359,-0.536,-0.5361,0,0,0,0,0,0,-0.5352,-0.5352,-0.5352,-0.5351,-0.5351,-0.5345,-0.5346,-0.5345,-0.5345,-0.534,-0.5339,-0.534,-0.5335,-0.5335,-0.5342,-0.5349,-0.5334,-0.5334,-0.5359,-0.536,-0.536,-0.5376,0,0,0,0,0,0,-0.5352,-0.5352,-0.5356,-0.5351,-0.5351,-0.5358,-0.5346,-0.5345,-0.5345,-0.5344,-0.5341,-0.534,-0.5335,-0.5341,-0.5342,-0.5349,-0.5334,-0.5358,-0.5359,-0.536,-0.5375,-0.5378,-0.538,0,0,0,0,0,-0.5352,-0.536,-0.5356,-0.5356,-0.5355,-0.5358,-0.5358,-0.5352,-0.5346,-0.535,-0.5347,-0.534,-0.5348,-0.5342,-0.5343,-0.535,-0.5358,-0.5359,-0.536,-0.5374,-0.5377,-0.538,0,0,0,0,0,0,-0.5365,-0.5359,-0.5355,-0.5361,-0.5361,-0.5356,-0.5361,-0.5355,-0.5356,-0.5355,-0.5347,-0.5347,-0.5355,-0.5353,-0.5346,-0.5361,-0.5352,-0.5353,-0.5362,-0.5365,-0.5367,-0.5368,-0.5335,0,0,0,0,0,-0.5369,-0.5371,-0.5366,-0.5373,-0.5372,-0.5367,-0.5368,-0.5363,-0.5362,-0.5362,-0.5359,-0.5358,-0.5361,-0.5363,-0.5365,-0.5374,-0.5375,-0.538,-0.5382,-0.5384,-0.5386,-0.5393,-0.5396,-0.5365,-0.5365,-0.5365,0,0,-0.5376,-0.5373,-0.5375,-0.5375,-0.5374,-0.5378,-0.5366,-0.537,-0.5373,-0.5362,-0.5368,-0.5367,-0.5365,-0.5374,-0.5378,-0.5373,-0.5395,-0.5386,-0.5387,-0.5388,-0.5395,-0.5398,-0.54,-0.5365,-0.5365,-0.5365,0,0,-0.5392,-0.539,-0.5396,-0.5395,-0.5393,-0.539,-0.5391,-0.5388,-0.5387,-0.5393,-0.5385,-0.5389,-0.5393,-0.5393,-0.5394,-0.5412,-0.5406,-0.5412,-0.5425,-0.5432,-0.5434,-0.5436,-0.5445,-0.5447,-0.5414,-0.5414,-0.5414,0,-0.5402,-0.5407,-0.54,-0.5405,-0.5406,-0.5396,-0.5403,-0.5402,-0.5402,-0.5403,-0.5397,-0.5404,-0.5402,-0.5412,-0.5416,-0.5416,-0.5419,-0.5413,-0.5434,-0.5436,-0.5438,-0.5446,-0.5449,-0.5415,-0.5414,-0.5414,-0.5414,0,-0.542,-0.5423,-0.5428,-0.5429,-0.543,-0.5436,-0.5431,-0.5433,-0.5429,-0.5426,-0.5433,-0.5431,-0.5434,-0.5435,-0.5431,-0.5445,-0.5442,-0.5435,-0.5426,-0.5443,-0.545,-0.5453,-0.5416,-0.5416,-0.5415,-0.5415,0,0,-0.5443,-0.544,-0.5443,-0.5444,-0.5442,-0.5445,-0.5451,-0.5453,-0.5456,-0.5456,-0.5462,-0.5467,-0.5461,-0.5462,-0.5457,-0.5463,-0.548,-0.5456,-0.5456,-0.5462,-0.5498,-0.5504,-0.5508,-0.5476,-0.5477,-0.5477,-0.5499,0,-0.546,-0.547,-0.5465,-0.5476,-0.548,-0.5472,-0.5477,-0.5478,-0.5475,-0.5479,-0.5477,-0.5481,-0.5472,-0.5473,-0.5479,-0.5477,-0.5488,-0.5475,-0.5483,-0.5483,-0.5485,-0.5511,-0.5517,-0.5538,-0.5501,-0.5502,-0.5502,0,-0.548,-0.5482,-0.5494,-0.5493,-0.5495,-0.55,-0.5503,-0.5506,-0.5507,-0.5505,-0.5507,-0.5501,-0.5508,-0.5498,-0.5509,-0.5501,-0.5504,-0.5503,-0.5504,-0.5506,-0.5495,-0.5515,-0.5544,-0.5548,-0.5506,-0.5506,-0.5506,0,-0.5498,-0.5504,-0.5512,-0.5513,-0.5512,-0.5516,-0.5516,-0.5516,-0.5518,-0.5521,-0.5523,-0.5526,-0.5528,-0.5531,-0.5527,-0.552,-0.5539,-0.5528,-0.5539,-0.554,-0.5545,-0.5545,-0.5576,-0.5544,-0.5544,-0.5544,-0.5544,0,-0.5518,-0.5526,-0.5521,-0.5526,-0.5535,-0.5529,-0.5539,-0.5538,-0.5538,-0.5544,-0.5537,-0.5542,-0.5536,-0.5542,-0.5539,-0.5549,-0.555,-0.555,-0.5549,-0.5551,-0.5551,-0.5554,-0.5553,-0.5545,-0.5544,-0.5544,-0.5544,0,-0.554,-0.5537,-0.5545,-0.5544,-0.5544,-0.5551,-0.5551,-0.5556,-0.5554,-0.5562,-0.5563,-0.556,-0.5566,-0.5563,-0.5568,-0.5567,-0.5581,-0.5577,-0.5581,-0.5581,-0.5593,-0.5592,-0.5628,-0.5634,-0.5596,-0.5597,-0.5597,0,-0.5554,-0.556,-0.556,-0.5563,-0.5564,-0.5569,-0.5572,-0.5567,-0.557,-0.5573,-0.5578,-0.5584,-0.5588,-0.5599,-0.5598,-0.5603,-0.5601,-0.5613,-0.5601,-0.5604,-0.5603,-0.5604,-0.5605,-0.5616,-0.5616,-0.5616,-0.5617,0,-0.5579,-0.5577,-0.5581,-0.5586,-0.5589,-0.5593,-0.5595,-0.5598,-0.5594,-0.5598,-0.5605,-0.5608,-0.5615,-0.5622,-0.5626,-0.5627,-0.5622,-0.562,-0.5623,-0.5627,-0.5629,-0.563,-0.5589,-0.562,-0.5619,-0.5619,-0.5619,-0.5619,-0.5598,-0.5604,-0.5605,-0.5611,-0.5613,-0.5616,-0.5622,-0.5621,-0.5626,-0.5632,-0.5628,-0.5637,-0.5639,-0.5645,-0.5647,-0.5654,-0.5649,-0.5653,-0.5654,-0.5656,-0.5659,-0.5627,-0.5654,-0.5654,-0.5654,-0.5654,-0.5654,0,-0.5624,-0.5625,-0.563,-0.5635,-0.564,-0.5634,-0.5637,-0.5642,-0.5649,-0.5652,-0.5657,-0.5666,-0.5672,-0.5672,-0.5678,-0.5684,-0.5682,-0.5686,-0.5687,-0.5688,-0.5661,-0.5659,-0.5688,-0.5688,-0.5688,-0.5688,-0.5688,-0.5688,-0.5638,-0.5649,-0.5648,-0.566,-0.5661,-0.5669,-0.5672,-0.5675,-0.5677,-0.5687,-0.5693,-0.5693,-0.5695,-0.5702,-0.5708,-0.5708,-0.5712,-0.5717,-0.5717,-0.5692,-0.5689,-0.5686,-0.5684,-0.5718,-0.5718,-0.5742,-0.5743,-0.5743]}]]